Weather History for KESN - October, 2013

Change the Weather History Date:

Tuesday, October 8, 2013

  Actual Average Record
Temperature  
Mean Temperature 58 °F -  
Max Temperature 64 °F 73 °F 85 °F (1959)
Min Temperature 53 °F 49 °F 34 °F (1954)
Degree Days  
Heating Degree Days 6    
Growing Degree Days 8 (Base 50)    
Moisture  
Dew Point 50 °F    
Average Humidity 74    
Maximum Humidity 94    
Minimum Humidity 56    
Precipitation  
Precipitation 0.00 in - - ()
Sea Level Pressure  
Sea Level Pressure 30.22 in    
Wind  
Wind Speed 2 mph (NNE)    
Max Wind Speed 15 mph    
Max Gust Speed 25 mph    
Visibility 10 miles    
Events      
Averages and records for this station are not official NWS values.
T = Trace of Precipitation, MM = Missing Value Source: NWS Daily Summary

Daily Weather History Graph

Daily Weather History Graph

Search for Another Location

Airport or City:

Trip Planner

Search our weather history database for the weather conditions in past years. The results will help you decide how hot, cold, wet, or windy it might be!

Date:

Astronomy

Oct. 08, 2013 Rise Set
Actual Time 7:06 AM EDT 6:35 PM EDT
Civil Twilight 6:40 AM EDT 7:02 PM EDT
Nautical Twilight 6:09 AM EDT 7:33 PM EDT
Astronomical Twilight 5:38 AM EDT 8:04 PM EDT
Moon 10:56 AM EDT (10/8) 9:12 PM EDT (10/8)
Length of Visible Light 12h 22m
Length of Day
11h 28m
Waxing Crescent, 16% of the Moon is Illuminated
Oct 8
Waxing Crescent
Oct 11
First Quarter
Oct 18
Full
Oct 26
Last Quarter
Nov 3
New

Hourly Weather History & Observations

Time (EDT) Temp. Dew Point Humidity Pressure Visibility Wind Dir Wind Speed Gust Speed Precip Events Conditions
12:12 AM 62.2 °F 51.3 °F 67% 30.09 in 10.0 mi Calm Calm - N/A   Mostly Cloudy
12:32 AM 61.2 °F 51.3 °F 70% 30.09 in 10.0 mi North 5.8 mph - N/A   Scattered Clouds
12:52 AM 60.6 °F 50.2 °F 68% 30.10 in 10.0 mi North 3.5 mph - N/A   Clear
1:12 AM 60.3 °F 49.3 °F 67% 30.11 in 10.0 mi Calm Calm - N/A   Clear
1:32 AM 59.5 °F 49.1 °F 68% 30.11 in 10.0 mi Calm Calm - N/A   Clear
1:52 AM 59.0 °F 48.6 °F 68% 30.13 in 10.0 mi Calm Calm - N/A   Clear
2:12 AM 58.3 °F 48.4 °F 70% 30.13 in 10.0 mi Calm Calm - N/A   Clear
2:32 AM 57.7 °F 48.2 °F 70% 30.13 in 10.0 mi Calm Calm - N/A   Clear
2:52 AM 57.6 °F 48.2 °F 71% 30.14 in 10.0 mi Calm Calm - N/A   Clear
3:12 AM 57.4 °F 48.2 °F 71% 30.14 in 10.0 mi Calm Calm - N/A   Clear
3:32 AM 57.0 °F 48.6 °F 73% 30.15 in 10.0 mi Calm Calm - N/A   Clear
3:52 AM 55.0 °F 49.1 °F 80% 30.15 in 10.0 mi Calm Calm - N/A   Clear
4:12 AM 54.9 °F 49.1 °F 81% 30.16 in 10.0 mi Calm Calm - N/A   Clear
4:32 AM 55.4 °F 48.6 °F 78% 30.16 in 10.0 mi Calm Calm - N/A   Clear
4:52 AM 55.2 °F 48.9 °F 79% 30.16 in 10.0 mi Calm Calm - N/A   Clear
5:12 AM 54.9 °F 48.7 °F 80% 30.18 in 10.0 mi Calm Calm - N/A   Clear
5:33 AM 55.0 °F 48.7 °F 79% 30.18 in 10.0 mi Calm Calm - N/A   Clear
5:45 AM 55.4 °F 48.2 °F 77% 30.19 in 7.0 mi NE 6.9 mph - N/A   Scattered Clouds
5:53 AM 54.5 °F 48.7 °F 81% 30.19 in 10.0 mi Calm Calm - N/A   Clear
6:13 AM 54.5 °F 48.6 °F 80% 30.20 in 10.0 mi Calm Calm - N/A   Clear
6:33 AM 54.5 °F 48.4 °F 80% 30.21 in 10.0 mi Calm Calm - N/A   Clear
6:45 AM 53.6 °F 48.2 °F 82% 30.22 in 10.0 mi Calm Calm - N/A   Scattered Clouds
6:46 AM 54.0 °F 48.4 °F 81% 30.22 in 10.0 mi Calm Calm - N/A   Clear
7:54 AM 55.4 °F 48.2 °F 77% 30.24 in 10.0 mi NNE 5.8 mph - N/A   Mostly Cloudy
8:45 AM 57.2 °F 50.0 °F 77% 30.26 in 10.0 mi North 5.8 mph - N/A   Mostly Cloudy
9:55 AM 59.0 °F 50.0 °F 72% 30.28 in 10.0 mi NNE 11.5 mph 17.3 mph N/A   Mostly Cloudy
10:53 AM 62.6 °F 48.2 °F 59% 30.29 in 10.0 mi NNE 11.5 mph - N/A   Mostly Cloudy
11:53 AM 62.6 °F 48.2 °F 59% 30.28 in 10.0 mi NE 15.0 mph 25.3 mph N/A   Mostly Cloudy
12:50 PM 64.4 °F 48.2 °F 56% 30.29 in 10.0 mi NE 12.7 mph - N/A   Mostly Cloudy
1:50 PM 64.4 °F 48.2 °F 56% 30.27 in 10.0 mi NNE 11.5 mph - N/A   Mostly Cloudy
2:53 PM 64.4 °F 48.2 °F 56% 30.26 in 10.0 mi NNE 12.7 mph - N/A   Overcast
3:53 PM 64.4 °F 48.2 °F 56% 30.26 in 10.0 mi NNE 11.5 mph - N/A   Overcast
4:53 PM 64.4 °F 48.2 °F 56% 30.26 in 10.0 mi NNE 9.2 mph - N/A   Overcast
5:53 PM 62.6 °F 50.0 °F 63% 30.28 in 10.0 mi NNE 5.8 mph - N/A   Overcast
6:53 PM 59.0 °F 51.8 °F 77% 30.29 in 10.0 mi Calm Calm - N/A   Overcast
7:53 PM 57.2 °F 53.6 °F 88% 30.29 in 10.0 mi Calm Calm - N/A   Overcast
8:53 PM 55.4 °F 53.6 °F 94% 30.30 in 10.0 mi Calm Calm - N/A   Overcast
9:54 PM 55.9 °F 53.6 °F 92% 30.31 in 10.0 mi Calm Calm - N/A   Clear
10:14 PM 57.2 °F 52.3 °F 84% 30.30 in 10.0 mi Calm Calm - N/A   Clear
10:34 PM 56.3 °F 52.5 °F 87% 30.31 in 10.0 mi Calm Calm - N/A   Clear
10:55 PM 56.3 °F 52.2 °F 86% 30.31 in 10.0 mi Calm Calm - N/A   Clear
11:15 PM 56.5 °F 52.2 °F 85% 30.31 in 10.0 mi Calm Calm - N/A   Clear
11:35 PM 56.1 °F 52.2 °F 87% 30.30 in 10.0 mi Calm Calm - N/A   Clear
11:55 PM 56.5 °F 52.0 °F 85% 30.30 in 10.0 mi Calm Calm - N/A   Clear